CW9244 Saint James NY US current weather conditions

sailwx.info

Wind from 090

Air temperature 23.3° C
Dewpoint 15.1° C

Last reported at 2020-Aug-07 00:02 UTC.
Time now 2020-Aug-07 01:06 UTC

Location: N 40°53' W 073°09'.
View on Google Maps.

See reports from other nearby stations

  
Tides and Currents Weather Stations Pressure Air Temp Water Temp Dewpoint Dewpoint Depression Visibility Wind Speed Wind Dir Waves Ship Positions
date/time (UTC)wind fromknots sea level pressurealtimeterstation pressurevisibilityair tempwater tempwave heightnotes
2020-Aug-07 00:02 090 23.3
2020-Aug-06 23:53 090 23.3
2020-Aug-06 23:44 090 23.9
2020-Aug-06 23:34 090 23.9
2020-Aug-06 23:24 090 24.4
2020-Aug-06 23:15 090 24.4
2020-Aug-06 23:05 090 25.0
2020-Aug-06 22:55 090 25.0
2020-Aug-06 22:46 090 25.0
2020-Aug-06 22:36 090 25.0
2020-Aug-06 22:27 090 25.0
2020-Aug-06 22:17 090 25.6
2020-Aug-06 22:07 090 25.6
2020-Aug-06 21:58 090 25.6
2020-Aug-06 21:48 090 25.6
2020-Aug-06 21:38 090 25.6
2020-Aug-06 21:29 090 1 25.6
2020-Aug-06 21:19 090 26.1
2020-Aug-06 21:10 090 26.1
2020-Aug-06 21:01 090 26.1
2020-Aug-06 20:52 090 26.1
2020-Aug-06 20:42 090 26.1
2020-Aug-06 20:33 090 0 25.6
2020-Aug-06 20:23 090 25.6
2020-Aug-06 20:14 090 1 26.7
2020-Aug-06 20:04 090 28.3
2020-Aug-06 19:54 090 28.9
2020-Aug-06 19:45 090 28.9
2020-Aug-06 19:35 090 1 29.4
2020-Aug-06 19:25 090 29.4
2020-Aug-06 19:16 090 30.0
2020-Aug-06 19:06 090 29.4
2020-Aug-06 18:57 090 27.2
2020-Aug-06 18:48 090 27.2
2020-Aug-06 18:38 090 27.8
2020-Aug-06 18:28 090 27.2
2020-Aug-06 18:19 090 26.1
2020-Aug-06 18:09 090 26.1
2020-Aug-06 18:00 090 0 25.6
2020-Aug-06 17:51 090 24.4
2020-Aug-06 17:41 090 23.9
2020-Aug-06 17:31 090 23.9
2020-Aug-06 17:22 090 23.9
2020-Aug-06 17:12 090 23.3
2020-Aug-06 17:03 090 22.8
2020-Aug-06 16:53 067 22.8
2020-Aug-06 16:44 067 22.8
2020-Aug-06 16:34 067 22.8
2020-Aug-06 16:25 067 22.8
2020-Aug-06 16:15 067 22.8
2020-Aug-06 16:05 067 22.8
2020-Aug-06 15:56 067 22.8
2020-Aug-06 15:47 067 22.8
2020-Aug-06 15:38 067 22.8
2020-Aug-06 15:28 067 22.8
2020-Aug-06 15:19 067 22.2
2020-Aug-06 15:09 180 22.8
2020-Aug-06 14:59 337 22.8
2020-Aug-06 14:50 180 22.8
2020-Aug-06 14:40 071 1 22.8
2020-Aug-06 14:31 067 22.8
2020-Aug-06 14:22 337 0 23.3
2020-Aug-06 14:13 045 23.3
2020-Aug-06 14:03 045 23.3
2020-Aug-06 13:54 022 1 23.9
2020-Aug-06 13:45 045 2 23.9
2020-Aug-06 13:35 022 1 24.4
2020-Aug-06 13:26 022 24.4
2020-Aug-06 13:16 022 0 23.9
2020-Aug-06 13:07 022 0 23.9
2020-Aug-06 12:58 022 1 24.4
2020-Aug-06 12:48 022 0 23.9
2020-Aug-06 12:39 022 1 23.9
2020-Aug-06 12:30 022 0 23.9
2020-Aug-06 12:20 022 23.9
2020-Aug-06 12:11 022 23.9
2020-Aug-06 12:01 337 0 23.3
2020-Aug-06 11:51 337 2 22.8
2020-Aug-06 11:41 067 0 21.7
2020-Aug-06 11:31 339 0 21.7
2020-Aug-06 11:22 067 21.1
2020-Aug-06 11:13 067 20.6
2020-Aug-06 11:03 225 19.4
2020-Aug-06 10:54 225 18.9
2020-Aug-06 10:44 225 18.3
2020-Aug-06 10:35 225 18.3
2020-Aug-06 10:25 225 18.3
2020-Aug-06 10:15 225 18.3
2020-Aug-06 10:05 225 18.3
2020-Aug-06 09:55 225 18.3
2020-Aug-06 09:46 225 18.3
2020-Aug-06 09:36 225 18.9
2020-Aug-06 09:27 225 18.9
2020-Aug-06 09:18 225 18.9
2020-Aug-06 09:09 225 18.9
2020-Aug-06 08:59 225 18.9
2020-Aug-06 08:50 225 18.9
2020-Aug-06 08:41 225 18.9
2020-Aug-06 08:31 225 18.9
2020-Aug-06 08:21 225 18.9
2020-Aug-06 08:12 225 18.9
2020-Aug-06 08:03 225 18.9
2020-Aug-06 07:53 225 19.4
2020-Aug-06 07:43 225 19.4
2020-Aug-06 07:34 225 19.4
2020-Aug-06 07:24 225 19.4
2020-Aug-06 07:14 225 19.4
2020-Aug-06 07:04 225 19.4
2020-Aug-06 06:54 225 19.4
2020-Aug-06 06:45 225 19.4
2020-Aug-06 06:35 225 19.4
2020-Aug-06 06:25 225 19.4
2020-Aug-06 06:15 225 19.4
2020-Aug-06 06:06 225 20.0
2020-Aug-06 05:56 225 20.0
2020-Aug-06 05:47 225 20.0
2020-Aug-06 05:37 225 20.0
2020-Aug-06 05:27 225 20.0
2020-Aug-06 05:17 225 20.0
2020-Aug-06 05:07 225 20.0
2020-Aug-06 04:57 225 20.0
2020-Aug-06 04:48 225 20.0
2020-Aug-06 04:39 225 20.6
2020-Aug-06 04:30 225 20.6
2020-Aug-06 04:20 225 20.6
2020-Aug-06 04:10 225 20.6
2020-Aug-06 04:00 225 20.6
2020-Aug-06 03:51 225 21.1
2020-Aug-06 03:42 225 21.1
2020-Aug-06 03:32 225 21.1
2020-Aug-06 03:23 225 21.1
2020-Aug-06 03:14 225 21.1
2020-Aug-06 03:04 225 21.7
2020-Aug-06 02:54 225 21.7
2020-Aug-06 02:45 225 21.7
2020-Aug-06 02:36 225 21.7
2020-Aug-06 02:26 225 21.7
2020-Aug-06 02:17 225 22.2
2020-Aug-06 02:07 225 22.2
2020-Aug-06 01:58 225 22.2
2020-Aug-06 01:48 225 22.8
2020-Aug-06 01:39 225 22.8
2020-Aug-06 01:29 225 23.3
2020-Aug-06 01:19 225 23.3
2020-Aug-06 01:09 225 23.9
2020-Aug-06 01:00 225 23.9
2020-Aug-06 00:50 225 23.9
2020-Aug-06 00:40 225 24.4
2020-Aug-06 00:31 225 24.4
2020-Aug-06 00:22 225 25.0
2020-Aug-06 00:12 225 25.0
2020-Aug-06 00:03 225 25.6
2020-Aug-05 23:54 225 25.6
2020-Aug-05 23:44 225 26.1
2020-Aug-05 23:34 225 26.7
2020-Aug-05 23:25 225 26.7
2020-Aug-05 23:15 225 26.7
2020-Aug-05 23:06 225 27.2
2020-Aug-05 22:56 225 27.2
2020-Aug-05 22:46 225 27.2
2020-Aug-05 22:36 225 27.8
2020-Aug-05 22:26 225 28.3
2020-Aug-05 22:16 225 28.3
2020-Aug-05 22:07 225 28.3
2020-Aug-05 21:57 225 28.9
2020-Aug-05 21:48 225 28.9
2020-Aug-05 21:39 225 0 28.9
2020-Aug-05 21:29 225 28.9
2020-Aug-05 21:20 225 29.4
2020-Aug-05 21:11 225 0 29.4
2020-Aug-05 21:01 225 30.0
2020-Aug-05 20:51 225 30.0
2020-Aug-05 20:42 225 29.4
2020-Aug-05 20:33 225 29.4
2020-Aug-05 20:24 225 29.4
2020-Aug-05 20:14 225 29.4
2020-Aug-05 20:04 225 30.0
2020-Aug-05 19:54 225 30.6
2020-Aug-05 19:44 225 0 30.6
2020-Aug-05 19:35 225 30.0
2020-Aug-05 19:25 225 30.0
2020-Aug-05 19:16 225 30.6
2020-Aug-05 19:06 225 30.6
2020-Aug-05 18:57 225 30.6
2020-Aug-05 18:47 225 30.0
2020-Aug-05 18:38 225 30.0
2020-Aug-05 18:28 225 30.0
2020-Aug-05 18:18 225 0 30.0
2020-Aug-05 18:09 225 0 29.4
2020-Aug-05 18:00 225 29.4
2020-Aug-05 17:51 225 29.4
2020-Aug-05 17:41 225 28.3
2020-Aug-05 17:31 225 29.4
2020-Aug-05 17:22 225 0 29.4
2020-Aug-05 17:12 225 29.4
2020-Aug-05 17:03 225 28.9
2020-Aug-05 16:53 225 30.0
2020-Aug-05 16:43 225 31.1
2020-Aug-05 16:33 225 31.7
2020-Aug-05 16:23 225 31.7
2020-Aug-05 16:14 225 31.1
2020-Aug-05 16:04 225 0 30.6
2020-Aug-05 15:55 225 0 30.0
2020-Aug-05 15:45 225 29.4
2020-Aug-05 15:36 225 28.9
2020-Aug-05 15:26 225 30.0
2020-Aug-05 15:17 225 30.0
2020-Aug-05 15:07 225 30.6
2020-Aug-05 14:57 225 30.6
2020-Aug-05 14:48 225 30.6
2020-Aug-05 14:39 225 30.0
2020-Aug-05 14:29 225 30.6
2020-Aug-05 14:20 225 30.0
2020-Aug-05 14:11 225 30.0
2020-Aug-05 14:01 225 29.4
2020-Aug-05 13:51 225 30.0
2020-Aug-05 13:41 225 29.4
2020-Aug-05 13:32 225 29.4
2020-Aug-05 13:23 225 28.9
2020-Aug-05 13:13 225 28.9
2020-Aug-05 03:42 292 21.7
2020-Aug-05 03:32 292 21.7
2020-Aug-05 03:22 067 21.1
2020-Aug-05 02:35 292 21.1
2020-Aug-05 02:25 292 21.1
2020-Aug-05 02:16 292 21.1
2020-Aug-05 02:06 292 21.1
2020-Aug-05 01:56 292 21.7
2020-Aug-05 01:46 292 21.7
2020-Aug-05 01:36 292 21.7
2020-Aug-05 01:26 301 21.7
2020-Aug-05 01:17 247 21.7
2020-Aug-05 01:08 247 21.7